Year,Month,Day,Hour,Minute,Value (Times are PST for temperature in C)
2024,01,12,00,00,-7.10
2024,01,12,00,01,-7.10
2024,01,12,00,02,-7.20
2024,01,12,00,03,-7.20
2024,01,12,00,04,-7.20
2024,01,12,00,05,-7.20
2024,01,12,00,06,-7.30
2024,01,12,00,07,-7.30
2024,01,12,00,08,-7.30
2024,01,12,00,09,-7.40
2024,01,12,00,10,-7.40
2024,01,12,00,11,-7.40
2024,01,12,00,12,-7.40
2024,01,12,00,13,-7.40
2024,01,12,00,14,-7.50
2024,01,12,00,15,-7.50
2024,01,12,00,16,-7.50
2024,01,12,00,17,-7.50
2024,01,12,00,18,-7.50
2024,01,12,00,19,-7.50
2024,01,12,00,20,-7.60
2024,01,12,00,21,-7.60
2024,01,12,00,22,-7.60
2024,01,12,00,23,-7.60
2024,01,12,00,24,-7.60
2024,01,12,00,25,-7.60
2024,01,12,00,26,-7.60
2024,01,12,00,27,-7.60
2024,01,12,00,28,-7.60
2024,01,12,00,29,-7.70
2024,01,12,00,30,-7.70
2024,01,12,00,31,-7.70
2024,01,12,00,32,-7.70
2024,01,12,00,33,-7.70
2024,01,12,00,34,-7.70
2024,01,12,00,35,-7.70
2024,01,12,00,36,-7.80
2024,01,12,00,37,-7.80
2024,01,12,00,38,-7.80
2024,01,12,00,39,-7.80
2024,01,12,00,40,-7.80
2024,01,12,00,41,-7.80
2024,01,12,00,42,-7.80
2024,01,12,00,43,-7.80
2024,01,12,00,44,-7.80
2024,01,12,00,45,-7.80
2024,01,12,00,46,-7.80
2024,01,12,00,47,-7.80
2024,01,12,00,48,-7.80
2024,01,12,00,49,-7.80
2024,01,12,00,50,-7.80
2024,01,12,00,51,-7.80
2024,01,12,00,52,-7.80
2024,01,12,00,53,-7.80
2024,01,12,00,54,-7.80
2024,01,12,00,55,-7.80
2024,01,12,00,56,-7.80
2024,01,12,00,57,-7.80
2024,01,12,00,58,-7.80
2024,01,12,00,59,-7.80
2024,01,12,01,00,-7.80
2024,01,12,01,01,-7.80
2024,01,12,01,02,-7.80
2024,01,12,01,03,-7.80
2024,01,12,01,04,-7.80
2024,01,12,01,05,-7.80
2024,01,12,01,06,-7.80
2024,01,12,01,07,-7.90
2024,01,12,01,08,-7.90
2024,01,12,01,09,-7.90
2024,01,12,01,10,-8.00
2024,01,12,01,11,-8.00
2024,01,12,01,12,-8.00
2024,01,12,01,13,-8.10
2024,01,12,01,14,-8.10
2024,01,12,01,15,-8.10
2024,01,12,01,16,-8.10
2024,01,12,01,17,-8.10
2024,01,12,01,18,-8.10
2024,01,12,01,19,-8.10
2024,01,12,01,20,-8.10
2024,01,12,01,21,-8.10
2024,01,12,01,22,-8.10
2024,01,12,01,23,-8.10
2024,01,12,01,24,-8.20
2024,01,12,01,25,-8.20
2024,01,12,01,26,-8.20
2024,01,12,01,27,-8.20
2024,01,12,01,28,-8.20
2024,01,12,01,29,-8.20
2024,01,12,01,30,-8.20
2024,01,12,01,31,-8.20
2024,01,12,01,32,-8.20
2024,01,12,01,33,-8.20
2024,01,12,01,34,-8.20
2024,01,12,01,35,-8.20
2024,01,12,01,36,-8.30
2024,01,12,01,37,-8.30
2024,01,12,01,38,-8.30
2024,01,12,01,39,-8.30
2024,01,12,01,40,-8.30
2024,01,12,01,41,-8.40
2024,01,12,01,42,-8.40
2024,01,12,01,43,-8.40
2024,01,12,01,44,-8.40
2024,01,12,01,45,-8.40
2024,01,12,01,46,-8.40
2024,01,12,01,47,-8.50
2024,01,12,01,48,-8.50
2024,01,12,01,49,-8.50
2024,01,12,01,50,-8.60
2024,01,12,01,51,-8.60
2024,01,12,01,52,-8.60
2024,01,12,01,53,-8.60
2024,01,12,01,54,-8.60
2024,01,12,01,55,-8.60
2024,01,12,01,56,-8.60
2024,01,12,01,57,-8.60
2024,01,12,01,58,-8.60
2024,01,12,01,59,-8.60
2024,01,12,02,00,-8.60
2024,01,12,02,01,-8.60
2024,01,12,02,02,-8.60
2024,01,12,02,03,-8.60
2024,01,12,02,04,-8.60
2024,01,12,02,05,-8.60
2024,01,12,02,06,-8.60
2024,01,12,02,07,-8.70
2024,01,12,02,08,-8.70
2024,01,12,02,09,-8.70
2024,01,12,02,10,-8.70
2024,01,12,02,11,-8.70
2024,01,12,02,12,-8.70
2024,01,12,02,13,-8.70
2024,01,12,02,14,-8.70
2024,01,12,02,15,-8.70
2024,01,12,02,16,-8.70
2024,01,12,02,17,-8.70
2024,01,12,02,18,-8.70
2024,01,12,02,19,-8.70
2024,01,12,02,20,-8.70
2024,01,12,02,21,-8.70
2024,01,12,02,22,-8.70
2024,01,12,02,23,-8.70
2024,01,12,02,24,-8.80
2024,01,12,02,25,-8.80
2024,01,12,02,26,-8.80
2024,01,12,02,27,-8.80
2024,01,12,02,28,-8.80
2024,01,12,02,29,-8.80
2024,01,12,02,30,-8.80
2024,01,12,02,31,-8.80
2024,01,12,02,32,-8.80
2024,01,12,02,33,-8.80
2024,01,12,02,34,-8.80
2024,01,12,02,35,-8.80
2024,01,12,02,36,-8.80
2024,01,12,02,37,-8.80
2024,01,12,02,38,-8.80
2024,01,12,02,39,-8.80
2024,01,12,02,40,-8.80
2024,01,12,02,41,-8.80
2024,01,12,02,42,-8.80
2024,01,12,02,43,-8.80
2024,01,12,02,44,-8.80
2024,01,12,02,45,-8.80
2024,01,12,02,46,-8.80
2024,01,12,02,47,-8.80
2024,01,12,02,48,-8.80
2024,01,12,02,49,-8.80
2024,01,12,02,50,-8.80
2024,01,12,02,51,-8.80
2024,01,12,02,52,-8.80
2024,01,12,02,53,-8.80
2024,01,12,02,54,-8.80
2024,01,12,02,55,-8.80
2024,01,12,02,56,-8.80
2024,01,12,02,57,-8.90
2024,01,12,02,58,-8.90
2024,01,12,02,59,-8.90
2024,01,12,03,00,-8.80
2024,01,12,03,01,-8.90
2024,01,12,03,02,-8.90
2024,01,12,03,03,-8.90
2024,01,12,03,04,-8.90
2024,01,12,03,05,-8.90
2024,01,12,03,06,-8.90
2024,01,12,03,07,-8.90
2024,01,12,03,08,-8.90
2024,01,12,03,09,-8.90
2024,01,12,03,10,-8.90
2024,01,12,03,11,-8.90
2024,01,12,03,12,-8.90
2024,01,12,03,13,-8.80
2024,01,12,03,14,-8.80
2024,01,12,03,15,-8.80
2024,01,12,03,16,-8.80
2024,01,12,03,17,-8.80
2024,01,12,03,18,-8.80
2024,01,12,03,19,-8.80
2024,01,12,03,20,-8.80
2024,01,12,03,21,-8.80
2024,01,12,03,22,-8.80
2024,01,12,03,23,-8.80
2024,01,12,03,24,-8.80
2024,01,12,03,25,-8.80
2024,01,12,03,26,-8.80
2024,01,12,03,27,-8.80
2024,01,12,03,28,-8.80
2024,01,12,03,29,-8.90
2024,01,12,03,30,-8.90
2024,01,12,03,31,-8.90
2024,01,12,03,32,-8.90
2024,01,12,03,33,-8.90
2024,01,12,03,34,-8.90
2024,01,12,03,35,-8.90
2024,01,12,03,36,-8.90
2024,01,12,03,37,-8.90
2024,01,12,03,38,-8.90
2024,01,12,03,39,-8.90
2024,01,12,03,40,-8.90
2024,01,12,03,41,-8.90
2024,01,12,03,42,-8.90
2024,01,12,03,43,-8.90
2024,01,12,03,44,-8.90
2024,01,12,03,45,-8.90
2024,01,12,03,46,-8.90
2024,01,12,03,47,-9.00
2024,01,12,03,48,-9.00
2024,01,12,03,49,-9.00
2024,01,12,03,50,-9.00
2024,01,12,03,51,-9.00
2024,01,12,03,52,-9.00
2024,01,12,03,53,-9.00
2024,01,12,03,54,-9.00
2024,01,12,03,55,-9.10
2024,01,12,03,56,-9.10
2024,01,12,03,57,-9.10
2024,01,12,03,58,-9.10
2024,01,12,03,59,-9.10
2024,01,12,04,00,-9.10
2024,01,12,04,01,-9.10
2024,01,12,04,02,-9.10
2024,01,12,04,03,-9.10
2024,01,12,04,04,-9.10
2024,01,12,04,05,-9.00
2024,01,12,04,06,-9.10
2024,01,12,04,07,-9.10
2024,01,12,04,08,-9.10
2024,01,12,04,09,-9.10
2024,01,12,04,10,-9.10
2024,01,12,04,11,-9.10
2024,01,12,04,12,-9.10
2024,01,12,04,13,-9.10
2024,01,12,04,14,-9.10
2024,01,12,04,15,-9.10
2024,01,12,04,16,-9.10
2024,01,12,04,17,-9.10
2024,01,12,04,18,-9.10
2024,01,12,04,19,-9.10
2024,01,12,04,20,-9.10
2024,01,12,04,21,-9.10
2024,01,12,04,22,-9.10
2024,01,12,04,23,-9.10
2024,01,12,04,24,-9.10
2024,01,12,04,25,-9.10
2024,01,12,04,26,-9.10
2024,01,12,04,27,-9.10
2024,01,12,04,28,-9.10
2024,01,12,04,29,-9.20
2024,01,12,04,30,-9.20
2024,01,12,04,31,-9.20
2024,01,12,04,32,-9.20
2024,01,12,04,33,-9.20
2024,01,12,04,34,-9.20
2024,01,12,04,35,-9.20
2024,01,12,04,36,-9.20
2024,01,12,04,37,-9.20
2024,01,12,04,38,-9.20
2024,01,12,04,39,-9.20
2024,01,12,04,40,-9.20
2024,01,12,04,41,-9.20
2024,01,12,04,42,-9.20
2024,01,12,04,43,-9.20
2024,01,12,04,44,-9.30
2024,01,12,04,45,-9.30
2024,01,12,04,46,-9.30
2024,01,12,04,47,-9.30
2024,01,12,04,48,-9.30
2024,01,12,04,49,-9.30
2024,01,12,04,50,-9.30
2024,01,12,04,51,-9.30
2024,01,12,04,52,-9.30
2024,01,12,04,53,-9.30
2024,01,12,04,54,-9.30
2024,01,12,04,55,-9.30
2024,01,12,04,56,-9.30
2024,01,12,04,57,-9.30
2024,01,12,04,58,-9.30
2024,01,12,04,59,-9.40
2024,01,12,05,00,-9.40
2024,01,12,05,01,-9.40
2024,01,12,05,02,-9.40
2024,01,12,05,03,-9.40
2024,01,12,05,04,-9.40
2024,01,12,05,05,-9.40
2024,01,12,05,06,-9.40
2024,01,12,05,07,-9.40
2024,01,12,05,08,-9.40
2024,01,12,05,09,-9.40
2024,01,12,05,10,-9.40
2024,01,12,05,11,-9.40
2024,01,12,05,12,-9.40
2024,01,12,05,13,-9.40
2024,01,12,05,14,-9.40
2024,01,12,05,15,-9.40
2024,01,12,05,16,-9.40
2024,01,12,05,17,-9.40
2024,01,12,05,18,-9.40
2024,01,12,05,19,-9.50
2024,01,12,05,20,-9.50
2024,01,12,05,21,-9.50
2024,01,12,05,22,-9.50
2024,01,12,05,23,-9.50
2024,01,12,05,24,-9.50
2024,01,12,05,25,-9.50
2024,01,12,05,26,-9.50
2024,01,12,05,27,-9.50
2024,01,12,05,28,-9.50
2024,01,12,05,29,-9.60
2024,01,12,05,30,-9.60
2024,01,12,05,31,-9.60
2024,01,12,05,32,-9.60
2024,01,12,05,33,-9.60
2024,01,12,05,34,-9.60
2024,01,12,05,35,-9.60
2024,01,12,05,36,-9.60
2024,01,12,05,37,-9.60
2024,01,12,05,38,-9.60
2024,01,12,05,39,-9.70
2024,01,12,05,40,-9.60
2024,01,12,05,41,-9.60
2024,01,12,05,42,-9.70
2024,01,12,05,43,-9.70
2024,01,12,05,44,-9.70
2024,01,12,05,45,-9.70
2024,01,12,05,46,-9.70
2024,01,12,05,47,-9.70
2024,01,12,05,48,-9.70
2024,01,12,05,49,-9.70
2024,01,12,05,50,-9.70
2024,01,12,05,51,-9.70
2024,01,12,05,52,-9.70
2024,01,12,05,53,-9.60
2024,01,12,05,54,-9.60
2024,01,12,05,55,-9.60
2024,01,12,05,56,-9.60
2024,01,12,05,57,-9.60
2024,01,12,05,58,-9.60
2024,01,12,05,59,-9.60
2024,01,12,06,00,-9.60
2024,01,12,06,01,-9.60
2024,01,12,06,02,-9.60
2024,01,12,06,03,-9.60
2024,01,12,06,04,-9.60
2024,01,12,06,05,-9.60
2024,01,12,06,06,-9.60
2024,01,12,06,07,-9.60
2024,01,12,06,08,-9.70
2024,01,12,06,09,-9.70
2024,01,12,06,10,-9.70
2024,01,12,06,11,-9.70
2024,01,12,06,12,-9.70
2024,01,12,06,13,-9.70
2024,01,12,06,14,-9.70
2024,01,12,06,15,-9.70
2024,01,12,06,16,-9.70
2024,01,12,06,17,-9.70
2024,01,12,06,18,-9.70
2024,01,12,06,19,-9.70
2024,01,12,06,20,-9.70
2024,01,12,06,21,-9.70
2024,01,12,06,22,-9.70
2024,01,12,06,23,-9.70
2024,01,12,06,24,-9.80
2024,01,12,06,25,-9.80
2024,01,12,06,26,-9.80
2024,01,12,06,27,-9.80
2024,01,12,06,28,-9.80
2024,01,12,06,29,-9.80
2024,01,12,06,30,-9.80
2024,01,12,06,31,-9.80
2024,01,12,06,32,-9.80
2024,01,12,06,33,-9.80
2024,01,12,06,34,-9.80
2024,01,12,06,35,-9.80
2024,01,12,06,36,-9.90
2024,01,12,06,37,-9.80
2024,01,12,06,38,-9.90
2024,01,12,06,39,-9.90
2024,01,12,06,40,-9.90
2024,01,12,06,41,-9.90
2024,01,12,06,42,-9.90
2024,01,12,06,43,-9.90
2024,01,12,06,44,-9.90
2024,01,12,06,45,-9.90
2024,01,12,06,46,-9.90
2024,01,12,06,47,-9.90
2024,01,12,06,48,-9.90
2024,01,12,06,49,-9.90
2024,01,12,06,50,-9.90
2024,01,12,06,51,-9.90
2024,01,12,06,52,-9.90
2024,01,12,06,53,-9.90
2024,01,12,06,54,-9.90
2024,01,12,06,55,-9.90
2024,01,12,06,56,-9.90
2024,01,12,06,57,-9.90
2024,01,12,06,58,-9.90
2024,01,12,06,59,-9.90
2024,01,12,07,00,-9.90
2024,01,12,07,01,-9.90
2024,01,12,07,02,-9.90
2024,01,12,07,03,-9.90
2024,01,12,07,04,-9.90
2024,01,12,07,05,-9.90
2024,01,12,07,06,-9.90
2024,01,12,07,07,-9.90
2024,01,12,07,08,-9.90
2024,01,12,07,09,-9.90
2024,01,12,07,10,-9.90
2024,01,12,07,11,-9.90
2024,01,12,07,12,-9.90
2024,01,12,07,13,-9.80
2024,01,12,07,14,-9.80
2024,01,12,07,15,-9.80
2024,01,12,07,16,-9.80
2024,01,12,07,17,-9.80
2024,01,12,07,18,-9.80
2024,01,12,07,19,-9.80
2024,01,12,07,20,-9.90
2024,01,12,07,21,-9.90
2024,01,12,07,22,-9.90
2024,01,12,07,23,-9.90
2024,01,12,07,24,-9.90
2024,01,12,07,25,-9.80
2024,01,12,07,26,-9.90
2024,01,12,07,27,-9.80
2024,01,12,07,28,-9.80
2024,01,12,07,29,-9.80
2024,01,12,07,30,-9.80
2024,01,12,07,31,-9.80
2024,01,12,07,32,-9.80
2024,01,12,07,33,-9.80
2024,01,12,07,34,-9.80
2024,01,12,07,35,-9.80
2024,01,12,07,36,-9.80
2024,01,12,07,37,-9.90
2024,01,12,07,38,-9.90
2024,01,12,07,39,-9.90
2024,01,12,07,40,-9.90
2024,01,12,07,41,-9.90
2024,01,12,07,42,-9.90
2024,01,12,07,43,-9.90
2024,01,12,07,44,-9.90
2024,01,12,07,45,-9.90
2024,01,12,07,46,-9.90
2024,01,12,07,47,-10.00
2024,01,12,07,48,-10.00
2024,01,12,07,49,-10.00
2024,01,12,07,50,-10.00
2024,01,12,07,51,-10.00
2024,01,12,07,52,-10.00
2024,01,12,07,53,-10.00
2024,01,12,07,54,-10.00
2024,01,12,07,55,-10.00
2024,01,12,07,56,-10.00
2024,01,12,07,57,-10.00
2024,01,12,07,58,-10.00
2024,01,12,07,59,-10.00
2024,01,12,08,00,-10.00
2024,01,12,08,01,-10.00
2024,01,12,08,02,-10.00
2024,01,12,08,03,-10.00
2024,01,12,08,04,-10.00
2024,01,12,08,05,-10.00
2024,01,12,08,06,-10.00
2024,01,12,08,07,-10.00
2024,01,12,08,08,-10.10
2024,01,12,08,09,-10.10
2024,01,12,08,10,-10.10
2024,01,12,08,11,-10.10
2024,01,12,08,12,-10.10
2024,01,12,08,13,-10.10
2024,01,12,08,14,-10.10
2024,01,12,08,15,-10.10
2024,01,12,08,16,-10.10
2024,01,12,08,17,-10.10
2024,01,12,08,18,-10.10
2024,01,12,08,19,-10.10
2024,01,12,08,20,-10.10
2024,01,12,08,21,-10.10
2024,01,12,08,22,-10.10
2024,01,12,08,23,-10.10
2024,01,12,08,24,-10.10
2024,01,12,08,25,-10.10
2024,01,12,08,26,-10.20
2024,01,12,08,27,-10.20
2024,01,12,08,28,-10.20
2024,01,12,08,29,-10.20
2024,01,12,08,30,-10.20
2024,01,12,08,31,-10.20
2024,01,12,08,32,-10.20
2024,01,12,08,33,-10.20
2024,01,12,08,34,-10.20
2024,01,12,08,35,-10.20
2024,01,12,08,36,-10.20
2024,01,12,08,37,-10.30
2024,01,12,08,38,-10.30
2024,01,12,08,39,-10.30
2024,01,12,08,40,-10.30
2024,01,12,08,41,-10.30
2024,01,12,08,42,-10.30
2024,01,12,08,43,-10.30
2024,01,12,08,44,-10.30
2024,01,12,08,45,-10.30
2024,01,12,08,46,-10.30
2024,01,12,08,47,-10.30
2024,01,12,08,48,-10.30
2024,01,12,08,49,-10.30
2024,01,12,08,50,-10.30
2024,01,12,08,51,-10.30
2024,01,12,08,52,-10.40
2024,01,12,08,53,-10.40
2024,01,12,08,54,-10.40
2024,01,12,08,55,-10.40
2024,01,12,08,56,-10.40
2024,01,12,08,57,-10.40
2024,01,12,08,58,-10.50
2024,01,12,08,59,-10.50
2024,01,12,09,00,-10.50
2024,01,12,09,01,-10.50
2024,01,12,09,02,-10.60
2024,01,12,09,03,-10.60
2024,01,12,09,04,-10.60
2024,01,12,09,05,-10.60
2024,01,12,09,06,-10.60
2024,01,12,09,07,-10.60
2024,01,12,09,08,-10.60
2024,01,12,09,09,-10.60
2024,01,12,09,10,-10.60
2024,01,12,09,11,-10.60
2024,01,12,09,12,-10.60
2024,01,12,09,13,-10.70
2024,01,12,09,14,-10.70
2024,01,12,09,15,-10.70
2024,01,12,09,16,-10.70
2024,01,12,09,17,-10.70
2024,01,12,09,18,-10.70
2024,01,12,09,19,-10.70
2024,01,12,09,20,-10.70
2024,01,12,09,21,-10.60
2024,01,12,09,22,-10.60
2024,01,12,09,23,-10.70
2024,01,12,09,24,-10.70
2024,01,12,09,25,-10.70
2024,01,12,09,26,-10.70
2024,01,12,09,27,-10.70
2024,01,12,09,28,-10.60
2024,01,12,09,29,-10.60
2024,01,12,09,30,-10.60
2024,01,12,09,31,-10.60
2024,01,12,09,32,-10.60
2024,01,12,09,33,-10.60
2024,01,12,09,34,-10.60
2024,01,12,09,35,-10.50
2024,01,12,09,36,-10.50
2024,01,12,09,37,-10.50
2024,01,12,09,38,-10.40
2024,01,12,09,39,-10.40
2024,01,12,09,40,-10.40
2024,01,12,09,41,-10.40
2024,01,12,09,42,-10.30
2024,01,12,09,43,-10.30
2024,01,12,09,44,-10.30
2024,01,12,09,45,-10.20
2024,01,12,09,46,-10.20
2024,01,12,09,47,-10.20
2024,01,12,09,48,-10.20
2024,01,12,09,49,-10.20
2024,01,12,09,50,-10.10
2024,01,12,09,51,-10.10
2024,01,12,09,52,-10.10
2024,01,12,09,53,-10.10
2024,01,12,09,54,-10.10
2024,01,12,09,55,-10.00
2024,01,12,09,56,-10.00
2024,01,12,09,57,-10.00
2024,01,12,09,58,-10.00
2024,01,12,09,59,-9.90
2024,01,12,10,00,-9.90
2024,01,12,10,01,-9.90
2024,01,12,10,02,-9.90
2024,01,12,10,03,-9.90
2024,01,12,10,04,-9.80
2024,01,12,10,05,-9.80
2024,01,12,10,06,-9.80
2024,01,12,10,07,-9.80
2024,01,12,10,08,-9.80
2024,01,12,10,09,-9.80
2024,01,12,10,10,-9.70
2024,01,12,10,11,-9.70
2024,01,12,10,12,-9.70
2024,01,12,10,13,-9.60
2024,01,12,10,14,-9.60
2024,01,12,10,15,-9.60
2024,01,12,10,16,-9.60
2024,01,12,10,17,-9.50
2024,01,12,10,18,-9.50
2024,01,12,10,19,-9.60
2024,01,12,10,20,-9.60
2024,01,12,10,21,-9.60
2024,01,12,10,22,-9.60
2024,01,12,10,23,-9.50
2024,01,12,10,24,-9.50
2024,01,12,10,25,-9.50
2024,01,12,10,26,-9.50
2024,01,12,10,27,-9.50
2024,01,12,10,28,-9.40
2024,01,12,10,29,-9.40
2024,01,12,10,30,-9.40
2024,01,12,10,31,-9.40
2024,01,12,10,32,-9.40
2024,01,12,10,33,-9.30
2024,01,12,10,34,-9.30
2024,01,12,10,35,-9.30
2024,01,12,10,36,-9.30
2024,01,12,10,37,-9.30
2024,01,12,10,38,-9.30
2024,01,12,10,39,-9.30
2024,01,12,10,40,-9.30
2024,01,12,10,41,-9.30
2024,01,12,10,42,-9.30
2024,01,12,10,43,-9.30
2024,01,12,10,44,-9.20
2024,01,12,10,45,-9.20
2024,01,12,10,46,-9.20
2024,01,12,10,47,-9.20
2024,01,12,10,48,-9.10
2024,01,12,10,49,-9.20
2024,01,12,10,50,-9.10
2024,01,12,10,51,-9.10
2024,01,12,10,52,-9.10
2024,01,12,10,53,-9.10
2024,01,12,10,54,-9.10
2024,01,12,10,55,-9.10
2024,01,12,10,56,-9.10
2024,01,12,10,57,-9.10
2024,01,12,10,58,-9.10
2024,01,12,10,59,-9.10
2024,01,12,11,00,-9.10
2024,01,12,11,01,-9.10
2024,01,12,11,02,-9.20
2024,01,12,11,03,-9.20
2024,01,12,11,04,-9.10
2024,01,12,11,05,-9.10
2024,01,12,11,06,-9.10
2024,01,12,11,07,-9.10
2024,01,12,11,08,-9.10
2024,01,12,11,09,-9.10
2024,01,12,11,10,-9.10
2024,01,12,11,11,-9.10
2024,01,12,11,12,-9.10
2024,01,12,11,13,-9.10
2024,01,12,11,14,-9.10
2024,01,12,11,15,-9.10
2024,01,12,11,16,-9.10
2024,01,12,11,17,-9.10
2024,01,12,11,18,-9.10
2024,01,12,11,19,-9.10
2024,01,12,11,20,-9.10
2024,01,12,11,21,-9.10
2024,01,12,11,22,-9.10
2024,01,12,11,23,-9.10
2024,01,12,11,24,-9.10
2024,01,12,11,25,-9.10
2024,01,12,11,26,-9.10
2024,01,12,11,27,-9.10
2024,01,12,11,28,-9.00
2024,01,12,11,29,-9.00
2024,01,12,11,30,-9.00
2024,01,12,11,31,-9.00
2024,01,12,11,32,-9.00
2024,01,12,11,33,-9.00
2024,01,12,11,34,-9.00
2024,01,12,11,35,-8.90
2024,01,12,11,36,-9.00
2024,01,12,11,37,-8.90
2024,01,12,11,38,-8.90
2024,01,12,11,39,-8.90
2024,01,12,11,40,-8.90
2024,01,12,11,41,-8.90
2024,01,12,11,42,-8.90
2024,01,12,11,43,-8.90
2024,01,12,11,44,-8.80
2024,01,12,11,45,-8.80
2024,01,12,11,46,-8.80
2024,01,12,11,47,-8.80
2024,01,12,11,48,-8.70
2024,01,12,11,49,-8.70
2024,01,12,11,50,-8.60
2024,01,12,11,51,-8.70
2024,01,12,11,52,-8.70
2024,01,12,11,53,-8.70
2024,01,12,11,54,-8.70
2024,01,12,11,55,-8.70
2024,01,12,11,56,-8.70
2024,01,12,11,57,-8.70
2024,01,12,11,58,-8.60
2024,01,12,11,59,-8.60
2024,01,12,12,00,-8.60
2024,01,12,12,01,-8.50
2024,01,12,12,02,-8.50
2024,01,12,12,03,-8.40
2024,01,12,12,04,-8.40
2024,01,12,12,05,-8.40
2024,01,12,12,06,-8.40
2024,01,12,12,07,-8.40
2024,01,12,12,08,-8.50
2024,01,12,12,09,-8.50
2024,01,12,12,10,-8.50
2024,01,12,12,11,-8.50
2024,01,12,12,12,-8.50
2024,01,12,12,13,-8.50
2024,01,12,12,14,-8.40
2024,01,12,12,15,-8.40
2024,01,12,12,16,-8.30
2024,01,12,12,17,-8.30
2024,01,12,12,18,-8.30
2024,01,12,12,19,-8.30
2024,01,12,12,20,-8.30
2024,01,12,12,21,-8.30
2024,01,12,12,22,-8.30
2024,01,12,12,23,-8.30
2024,01,12,12,24,-8.20
2024,01,12,12,25,-8.20
2024,01,12,12,26,-8.20
2024,01,12,12,27,-8.20
2024,01,12,12,28,-8.20
2024,01,12,12,29,-8.10
2024,01,12,12,30,-8.00
2024,01,12,12,31,-8.00
2024,01,12,12,32,-8.00
2024,01,12,12,33,-7.90
2024,01,12,12,34,-7.80
2024,01,12,12,35,-7.80
2024,01,12,12,36,-7.80
2024,01,12,12,37,-7.80
2024,01,12,12,38,-7.80
2024,01,12,12,39,-7.80
2024,01,12,12,40,-7.80
2024,01,12,12,41,-7.80
2024,01,12,12,42,-7.80
2024,01,12,12,43,-7.80
2024,01,12,12,44,-7.80
2024,01,12,12,45,-7.80
2024,01,12,12,46,-7.80
2024,01,12,12,47,-7.80
2024,01,12,12,48,-7.80
2024,01,12,12,49,-7.80
2024,01,12,12,50,-7.80
2024,01,12,12,51,-7.80
2024,01,12,12,52,-7.80
2024,01,12,12,53,-7.70
2024,01,12,12,54,-7.70
2024,01,12,12,55,-7.70
2024,01,12,12,56,-7.70
2024,01,12,12,57,-7.70
2024,01,12,12,58,-7.70
2024,01,12,12,59,-7.60
2024,01,12,13,00,-7.60
2024,01,12,13,01,-7.60
2024,01,12,13,02,-7.60
2024,01,12,13,03,-7.60
2024,01,12,13,04,-7.60
2024,01,12,13,05,-7.60
2024,01,12,13,06,-7.60
2024,01,12,13,07,-7.60
2024,01,12,13,08,-7.60
2024,01,12,13,09,-7.60
2024,01,12,13,10,-7.60
2024,01,12,13,11,-7.70
2024,01,12,13,12,-7.70
2024,01,12,13,13,-7.70
2024,01,12,13,14,-7.70
2024,01,12,13,15,-7.80
2024,01,12,13,16,-7.80
2024,01,12,13,17,-7.80
2024,01,12,13,18,-7.80
2024,01,12,13,19,-7.80
2024,01,12,13,20,-7.80
2024,01,12,13,21,-7.80
2024,01,12,13,22,-7.80
2024,01,12,13,23,-7.80
2024,01,12,13,24,-7.80
2024,01,12,13,25,-7.80
2024,01,12,13,26,-7.80
2024,01,12,13,27,-7.80
2024,01,12,13,28,-7.80
2024,01,12,13,29,-7.90
2024,01,12,13,30,-7.90
2024,01,12,13,31,-7.90
2024,01,12,13,32,-7.90
2024,01,12,13,33,-8.00
2024,01,12,13,34,-8.00
2024,01,12,13,35,-7.90
2024,01,12,13,36,-7.90
2024,01,12,13,37,-7.90
2024,01,12,13,38,-7.90
2024,01,12,13,39,-7.90
2024,01,12,13,40,-7.90
2024,01,12,13,41,-7.80
2024,01,12,13,42,-7.90
2024,01,12,13,43,-7.90
2024,01,12,13,44,-7.90
2024,01,12,13,45,-7.90
2024,01,12,13,46,-7.90
2024,01,12,13,47,-7.90
2024,01,12,13,48,-8.00
2024,01,12,13,49,-8.00
2024,01,12,13,50,-8.00
2024,01,12,13,51,-7.90
2024,01,12,13,52,-7.90
2024,01,12,13,53,-7.90
2024,01,12,13,54,-7.90
2024,01,12,13,55,-7.90
2024,01,12,13,56,-7.90
2024,01,12,13,57,-7.90
2024,01,12,13,58,-7.90
2024,01,12,13,59,-7.90
2024,01,12,14,00,-7.90
2024,01,12,14,01,-7.90
2024,01,12,14,02,-7.90
2024,01,12,14,03,-7.90
2024,01,12,14,04,-7.90
2024,01,12,14,05,-7.90
2024,01,12,14,06,-8.00
2024,01,12,14,07,-7.90
2024,01,12,14,08,-7.90
2024,01,12,14,09,-7.90
2024,01,12,14,10,-8.00
2024,01,12,14,11,-8.00
2024,01,12,14,12,-8.00
2024,01,12,14,13,-8.00
2024,01,12,14,14,-8.00
2024,01,12,14,15,-8.00
2024,01,12,14,16,-8.00
2024,01,12,14,17,-7.90
2024,01,12,14,18,-7.90
2024,01,12,14,19,-7.90
2024,01,12,14,20,-7.90
2024,01,12,14,21,-7.90
2024,01,12,14,22,-7.90
2024,01,12,14,23,-7.90
2024,01,12,14,24,-7.80
2024,01,12,14,25,-7.80
2024,01,12,14,26,-7.80
2024,01,12,14,27,-7.90
2024,01,12,14,28,-7.90
2024,01,12,14,29,-7.90
2024,01,12,14,30,-8.00
2024,01,12,14,31,-8.00
2024,01,12,14,32,-8.10
2024,01,12,14,33,-8.00
2024,01,12,14,34,-8.00
2024,01,12,14,35,-8.00
2024,01,12,14,36,-8.00
2024,01,12,14,37,-8.00
2024,01,12,14,38,-8.10
2024,01,12,14,39,-8.10
2024,01,12,14,40,-8.10
2024,01,12,14,41,-8.10
2024,01,12,14,42,-8.10
2024,01,12,14,43,-8.10
2024,01,12,14,44,-8.00
2024,01,12,14,45,-8.00
2024,01,12,14,46,-8.00
2024,01,12,14,47,-8.00
2024,01,12,14,48,-8.00
2024,01,12,14,49,-8.00
2024,01,12,14,50,-8.10
2024,01,12,14,51,-8.10
2024,01,12,14,52,-8.20
2024,01,12,14,53,-8.20
2024,01,12,14,54,-8.30
2024,01,12,14,55,-8.40
2024,01,12,14,56,-8.40
2024,01,12,14,57,-8.40
2024,01,12,14,58,-8.30
2024,01,12,14,59,-8.30
2024,01,12,15,00,-8.30
2024,01,12,15,01,-8.30
2024,01,12,15,02,-8.30
2024,01,12,15,03,-8.30
2024,01,12,15,04,-8.20
2024,01,12,15,05,-8.20
2024,01,12,15,06,-8.20
2024,01,12,15,07,-8.20
2024,01,12,15,08,-8.20
2024,01,12,15,09,-8.20
2024,01,12,15,10,-8.20
2024,01,12,15,11,-8.30
2024,01,12,15,12,-8.30
2024,01,12,15,13,-8.30
2024,01,12,15,14,-8.30
2024,01,12,15,15,-8.30
2024,01,12,15,16,-8.30
2024,01,12,15,17,-8.30
2024,01,12,15,18,-8.30
2024,01,12,15,19,-8.30
2024,01,12,15,20,-8.30
2024,01,12,15,21,-8.30
2024,01,12,15,22,-8.30
2024,01,12,15,23,-8.30
2024,01,12,15,24,-8.20
2024,01,12,15,25,-8.30
2024,01,12,15,26,-8.20
2024,01,12,15,27,-8.20
2024,01,12,15,28,-8.20
2024,01,12,15,29,-8.20
2024,01,12,15,30,-8.20
2024,01,12,15,31,-8.20
2024,01,12,15,32,-8.20
2024,01,12,15,33,-8.20
2024,01,12,15,34,-8.20
2024,01,12,15,35,-8.20
2024,01,12,15,36,-8.30
2024,01,12,15,37,-8.30
2024,01,12,15,38,-8.30
2024,01,12,15,39,-8.30
2024,01,12,15,40,-8.30
2024,01,12,15,41,-8.40
2024,01,12,15,42,-8.40
2024,01,12,15,43,-8.40
2024,01,12,15,44,-8.40
2024,01,12,15,45,-8.40
2024,01,12,15,46,-8.40
2024,01,12,15,47,-8.40
2024,01,12,15,48,-8.40
2024,01,12,15,49,-8.40
2024,01,12,15,50,-8.40
2024,01,12,15,51,-8.40
2024,01,12,15,52,-8.40
2024,01,12,15,53,-8.40
2024,01,12,15,54,-8.40
2024,01,12,15,55,-8.40
2024,01,12,15,56,-8.40
2024,01,12,15,57,-8.50
2024,01,12,15,58,-8.50
2024,01,12,15,59,-8.60
2024,01,12,16,00,-8.60
2024,01,12,16,01,-8.60
2024,01,12,16,02,-8.60
2024,01,12,16,03,-8.60
2024,01,12,16,04,-8.60
2024,01,12,16,05,-8.70
2024,01,12,16,06,-8.70
2024,01,12,16,07,-8.70
2024,01,12,16,08,-8.70
2024,01,12,16,09,-8.70
2024,01,12,16,10,-8.80
2024,01,12,16,11,-8.80
2024,01,12,16,12,-8.80
2024,01,12,16,13,-8.80
2024,01,12,16,14,-8.80
2024,01,12,16,15,-8.80
2024,01,12,16,16,-8.80
2024,01,12,16,17,-8.80
2024,01,12,16,18,-8.90
2024,01,12,16,19,-8.90
2024,01,12,16,20,-8.90
2024,01,12,16,21,-8.90
2024,01,12,16,22,-8.90
2024,01,12,16,23,-8.90
2024,01,12,16,24,-9.00
2024,01,12,16,25,-9.00
2024,01,12,16,26,-9.00
2024,01,12,16,27,-9.00
2024,01,12,16,28,-9.00
2024,01,12,16,29,-9.00
2024,01,12,16,30,-9.10
2024,01,12,16,31,-9.10
2024,01,12,16,32,-9.10
2024,01,12,16,33,-9.10
2024,01,12,16,34,-9.10
2024,01,12,16,35,-9.10
2024,01,12,16,36,-9.10
2024,01,12,16,37,-9.10
2024,01,12,16,38,-9.10
2024,01,12,16,39,-9.10
2024,01,12,16,40,-9.10
2024,01,12,16,41,-9.10
2024,01,12,16,42,-9.10
2024,01,12,16,43,-9.10
2024,01,12,16,44,-9.10
2024,01,12,16,45,-9.20
2024,01,12,16,46,-9.20
2024,01,12,16,47,-9.20
2024,01,12,16,48,-9.20
2024,01,12,16,49,-9.20
2024,01,12,16,50,-9.20
2024,01,12,16,51,-9.20
2024,01,12,16,52,-9.20
2024,01,12,16,53,-9.30
2024,01,12,16,54,-9.30
2024,01,12,16,55,-9.20
2024,01,12,16,56,-9.30
2024,01,12,16,57,-9.20
2024,01,12,16,58,-9.20
2024,01,12,16,59,-9.30
2024,01,12,17,00,-9.30
2024,01,12,17,01,-9.30
2024,01,12,17,02,-9.30
2024,01,12,17,03,-9.30
2024,01,12,17,04,-9.30
2024,01,12,17,05,-9.30
2024,01,12,17,06,-9.30
2024,01,12,17,07,-9.30
2024,01,12,17,08,-9.30
2024,01,12,17,09,-9.30
2024,01,12,17,10,-9.30
2024,01,12,17,11,-9.30
2024,01,12,17,12,-9.30
2024,01,12,17,13,-9.30